Location: Poigny-la-Forêt
(48.6876°N, 1.7701°E)
Time: 18:30:20
(UTC+02:00)

ISS - Pass Details

Date: 26 March 2019
Orbit: 408 x 410 km, 51.6° (Epoch: 22 April)

Event Time Altitude Azimuth Distance (km) Brightness Sun altitude
Rises 22:34:19 0° 285° (WNW) 2,338 0.8 -30.1°
Reaches altitude 10° 22:36:27 10° 290° (WNW) 1,475 -0.3 -30.4°
Enters shadow 22:36:34 11° 290° (WNW) 1,425 -0.4 -30.4°
